Pomona, NJ

11:43 AM EDT on August 30, 2016 (GMT -0400)
Atlantic City International

Weather History for KACY - February, 2013

Change the Weather History Date:

Monday, February 11, 2013

  Actual Average Record
Temperature  
Mean Temperature 45 °F 35 °F  
Max Temperature 54 °F 43 °F 69 °F (2009)
Min Temperature 36 °F 26 °F -8 °F (1979)
Degree Days  
Heating Degree Days 20 30  
Month to date heating degree days 377 342  
Since 1 July heating degree days 2937 3103  
Cooling Degree Days 0 0  
Month to date cooling degree days 0 0  
Year to date cooling degree days 0 0  
Moisture  
Dew Point 45 °F    
Average Humidity 88    
Maximum Humidity 100    
Minimum Humidity 76    
Precipitation  
Precipitation 0.56 in 0.10 in 1.70 in (1886)
Month to date precipitation 2.89 1.07  
Year to date precipitation 5.19 4.29  
Snow  
Snow 0.00 in 0.30 in 11.80 in (1983)
Month to date snowfall 5.0 2.8  
Since 1 July snowfall 10.1 11.2  
Snow Depth 0.00 in    
Sea Level Pressure  
Sea Level Pressure 29.95 in    
Wind  
Wind Speed 12 mph (South)    
Max Wind Speed 25 mph    
Max Gust Speed 35 mph    
Visibility 5 miles    
Events Fog , Rain    
T = Trace of Precipitation, MM = Missing Value Source: NWS Daily Summary

Daily Weather History Graph

Daily Weather History Graph

Search for Another Location

Airport or City:

Trip Planner

Search our weather history database for the weather conditions in past years. The results will help you decide how hot, cold, wet, or windy it might be!

Date:

Astronomy

Feb. 11, 2013 Rise Set
Actual Time 6:54 AM EST 5:30 PM EST
Civil Twilight 6:27 AM EST 5:58 PM EST
Nautical Twilight 5:55 AM EST 6:30 PM EST
Astronomical Twilight 5:24 AM EST 7:01 PM EST
Moon 7:18 AM EST (2/11) 7:23 PM EST (2/11)
Length of Visible Light 11h 31m
Length of Day
10h 35m
Waxing Crescent, 3% of the Moon is Illuminated
Feb 11
Waxing Crescent
Feb 17
First Quarter
Feb 25
Full
Mar 4
Last Quarter
Mar 11
New

Hourly Weather History & Observations

Time (EST) Temp. Windchill Dew Point Humidity Pressure Visibility Wind Dir Wind Speed Gust Speed Precip Events Conditions
12:54 AM 37.0 °F 31.0 °F 32.0 °F 82% 30.31 in 10.0 mi SE 8.1 mph - N/A   Clear
1:54 AM 37.9 °F 32.1 °F 33.1 °F 83% 30.27 in 10.0 mi SE 8.1 mph - N/A   Clear
2:54 AM 39.9 °F 36.7 °F 34.0 °F 79% 30.26 in 10.0 mi South 4.6 mph - N/A   Overcast
3:54 AM 39.9 °F 35.8 °F 36.0 °F 86% 30.21 in 10.0 mi SSE 5.8 mph - 0.00 in   Overcast
4:54 AM 42.1 °F 38.4 °F 37.0 °F 82% 30.19 in 10.0 mi South 5.8 mph - N/A   Overcast
5:14 AM 42.1 °F 37.7 °F 37.0 °F 82% 30.16 in 8.0 mi SSE 6.9 mph - 0.00 in Rain Light Rain
5:54 AM 42.1 °F 35.7 °F 39.0 °F 89% 30.14 in 10.0 mi SSE 11.5 mph - 0.04 in Rain Light Rain
6:39 AM 44.1 °F 37.7 °F 42.1 °F 93% 30.10 in 5.0 mi SSE 12.7 mph - 0.05 in Rain Light Rain
6:54 AM 45.0 °F 38.5 °F 42.1 °F 90% 30.09 in 8.0 mi SSE 13.8 mph 23.0 mph 0.07 in Rain Light Rain
7:10 AM 46.0 °F 39.3 °F 44.1 °F 93% 30.08 in 7.0 mi SSE 16.1 mph 24.2 mph 0.02 in Rain Rain
7:25 AM 46.9 °F - 44.1 °F 90% 30.08 in 7.0 mi South 17.3 mph 26.5 mph 0.05 in Rain Light Rain
7:58 AM 46.9 °F - 45.0 °F 93% 30.07 in 2.5 mi South 18.4 mph 25.3 mph 0.01 in Rain Rain
8:14 AM 48.0 °F - 45.0 °F 89% 30.05 in 3.0 mi South 18.4 mph 28.8 mph 0.06 in Rain Rain
8:50 AM 48.2 °F - 44.6 °F 87% 30.03 in 2.5 mi South 16.1 mph 27.6 mph 0.14 in Rain Rain
8:54 AM 48.0 °F - 45.0 °F 89% 30.03 in 4.0 mi South 13.8 mph 26.5 mph 0.15 in Rain Rain
9:08 AM 48.9 °F - 46.0 °F 90% 30.02 in 2.0 mi South 19.6 mph 28.8 mph 0.03 in Rain Rain
9:33 AM 48.9 °F - 46.9 °F 93% 30.00 in 2.0 mi South 17.3 mph 29.9 mph 0.06 in Rain Rain
9:54 AM 48.9 °F - 46.9 °F 93% 30.00 in 9.0 mi SSW 21.9 mph 32.2 mph 0.09 in Rain Light Rain
10:15 AM 48.9 °F - 46.9 °F 93% 29.99 in 1.8 mi SSW 16.1 mph 27.6 mph 0.01 in Rain Light Rain
10:29 AM 48.9 °F - 46.9 °F 93% 29.99 in 2.0 mi SSW 16.1 mph 29.9 mph 0.02 in Rain Light Rain
10:54 AM 48.9 °F - 46.9 °F 93% 29.99 in 2.0 mi South 15.0 mph 27.6 mph 0.04 in Rain Light Rain
11:54 AM 48.9 °F - 48.0 °F 97% 29.94 in 2.0 mi South 15.0 mph - 0.03 in Rain Light Rain
12:02 PM 48.9 °F - 48.0 °F 97% 29.93 in 2.0 mi SSW 15.0 mph 19.6 mph 0.00 in Rain Light Rain
12:26 PM 50.0 °F - 48.0 °F 93% 29.91 in 1.5 mi SSW 10.4 mph - 0.01 in Rain Light Rain
12:54 PM 48.9 °F - 48.0 °F 97% 29.89 in 1.5 mi SSW 9.2 mph - 0.02 in Rain Light Rain
1:54 PM 50.0 °F - 48.9 °F 96% 29.84 in 1.5 mi SSW 10.4 mph - 0.01 in   Overcast
2:54 PM 52.0 °F - 50.0 °F 93% 29.81 in 1.5 mi SSW 9.2 mph - N/A   Overcast
3:09 PM 52.0 °F - 50.0 °F 93% 29.81 in 3.0 mi SSW 9.2 mph - N/A   Overcast
3:54 PM 54.0 °F - 51.1 °F 90% 29.78 in 3.0 mi SSW 10.4 mph - N/A   Overcast
4:54 PM 51.1 °F - 50.0 °F 96% 29.76 in 3.0 mi South 9.2 mph - N/A   Overcast
5:54 PM 51.1 °F - 48.9 °F 92% 29.74 in 3.0 mi South 8.1 mph - N/A   Overcast
6:19 PM 50.0 °F - 48.0 °F 93% 29.74 in 3.0 mi South 8.1 mph - N/A   Overcast
6:54 PM 48.9 °F - 48.0 °F 97% 29.72 in 3.0 mi South 6.9 mph - N/A   Overcast
7:43 PM 48.9 °F - 48.0 °F 97% 29.69 in 1.5 mi SSW 10.4 mph - N/A   Overcast
7:54 PM 48.9 °F - 48.0 °F 97% 29.69 in 0.8 mi SSW 6.9 mph - N/A   Overcast
8:54 PM 48.9 °F - 48.0 °F 97% 29.69 in 0.5 mi SSW 6.9 mph - N/A Fog Fog
9:16 PM 50.0 °F - 48.9 °F 96% 29.69 in 10.0 mi SW 8.1 mph - N/A   Clear
9:54 PM 53.1 °F - 50.0 °F 89% 29.70 in 10.0 mi WSW 12.7 mph 19.6 mph N/A   Clear
10:54 PM 52.0 °F - 48.9 °F 89% 29.70 in 10.0 mi West 13.8 mph - N/A   Clear
11:32 PM 53.1 °F - 48.0 °F 83% 29.74 in 10.0 mi WNW 21.9 mph 31.1 mph N/A   Mostly Cloudy
11:54 PM 50.0 °F - 45.0 °F 83% 29.75 in 10.0 mi NW 15.0 mph - N/A   Mostly Cloudy